Regional Weather Roundup
Issued by NWS

Home | Current Version | Previous Version | Text Only | Print | Product List | Glossary Off
Versions: 1 2 3 4 5 6 7 8 9 10 11 12 13 14 15 16 17 18 19 20 21 22 23 24 25 26 27 28 29 30 31 32 33 34 35 36 37 38 39 40 41 42 43 44 45 46 47 48 49 50

707
ASUS43 KLMK 291502
RWRKY
KENTUCKY REGIONAL WEATHER ROUNDUP
NATIONAL WEATHER SERVICE LOUISVILLE KY
1100 AM EDT SUN MAY 29 2016

NOTE "FAIR" INDICATES FEW OR NO CLOUDS BELOW 12,000 FEET
WITH NO SIGNIFICANT WEATHER AND/OR OBSTRUCTIONS TO VISIBILITY.

KYZ001>023-026-027-061>063-070>075-291600-
WESTERN AND SOUTH CENTRAL KENTUCKY

CITY           SKY/WX    TMP DP  RH WIND       PRES   REMARKS
PADUCAH        MOSUNNY   80  68  66 VRB5      30.10S
HENDERSON      SUNNY     81  68  65 W8        30.08S
OWENSBORO      MOSUNNY   82  70  67 S8        30.11F
HOPKINSVILLE   NOT AVBL
BOWLING GREEN  SUNNY     78  68  71 SW6       30.13F
GLASGOW        NOT AVBL
$$

KYZ024-025-028>034-038-045-046-053-291600-
NORTH CENTRAL KENTUCKY

CITY           SKY/WX    TMP DP  RH WIND       PRES   REMARKS
LOUISVILLE/SDF MOSUNNY   81  66  60 W7        30.12F
LOUISVILLE/LOU SUNNY     79  66  64 SW8       30.12F
FORT KNOX      SUNNY     79  67  67 VRB5      30.11F
$$

KYZ035>037-039>044-047>052-055>060-089>105-291600-
NORTHEAST KENTUCKY

CITY           SKY/WX    TMP DP  RH WIND       PRES   REMARKS
LEXINGTON      MOSUNNY   76  65  68 S3        30.15F
COVINGTON      CLOUDY    77  67  71 SW5       30.12S
FRANKFORT      CLOUDY    79  66  64 VRB5      30.13F
$$

KYZ054-064>069-076>088-106>120-291600-
SOUTHEAST KENTUCKY

CITY           SKY/WX    TMP DP  RH WIND       PRES   REMARKS
JACKSON        PTSUNNY   76  66  71 CALM      30.16S
LONDON         CLOUDY    75  63  66 CALM      30.17S
SOMERSET       NOT AVBL
MIDDLESBORO    NOT AVBL
MONTICELLO     MOSUNNY   76  65  68 NW8       30.19S
$$





USA.gov is the U.S. government's official web portal to all federal, state and local government web resources and services.